Skip Page Navigation
NASA JPL Caltech
NASA Logo - Jet Propulsion Laboratory + View the NASA Portal
+ Center for Near-Earth Object Studies
JPL Home Earth Solar System Stars & Galaxies Technology
JPL Solar System Dynamics
BODIES ORBITS EPHEMERIDES TOOLS PHYSICAL DATA DISCOVERY FAQ SITE MAP
JPL Small-Body Database Browser
Search: [ help ]  
160086 (2000 LT23)
Classification: Main-belt Asteroid          SPK-ID: 2160086
Ephemeris | Orbit Diagram | Orbital Elements | Mission Design | Physical Parameters | Discovery Circumstances | Close-Approach Data ]

[ show orbit diagram ]
Orbital Elements at Epoch 2459000.5 (2020-May-31.0) TDB
Reference: JPL 15 (heliocentric ecliptic J2000)
 Element Value Uncertainty (1-sigma)   Units 
e .1949200859160505 5.1694e-08  
a 2.301000692572413 1.4581e-08 au
q 1.852489439883306 1.1567e-07 au
i 11.50660156323914 5.8764e-06 deg
node 252.7531109324165 2.8547e-05 deg
peri 32.85554730028723 3.6829e-05 deg
M 241.3370684628421 2.7928e-05 deg
tp 2459420.729100327719
(2021-Jul-25.22910033)
0.00010094 TDB
period 1274.892455110184
3.49
1.2118e-05
3.318e-08
d
yr
n .2823767593548795 2.6841e-09 deg/d
Q 2.749511945261519 1.7423e-08 au
  Orbit Determination Parameters
   # obs. used (total)      410  
   data-arc span      7206 days (19.73 yr)  
   first obs. used      2000-05-10  
   last obs. used      2020-02-01  
   planetary ephem.      DE431  
   SB-pert. ephem.      SB431-N16  
   condition code      0  
   norm. resid. RMS      .52308  
   source      ORB  
   producer      Otto Matic  
   solution date      2020-Feb-24 13:13:25  

Additional Information
 Earth MOID = .846766 au 
 Jupiter MOID = 2.40944 au 
 T_jup = 3.540 
[ show covariance matrix ]

Ephemeris | Orbit Diagram | Orbital Elements | Mission Design | Physical Parameters | Discovery Circumstances | Close-Approach Data ]

Physical Parameter Table
Parameter Symbol Value Units Sigma Reference Notes
absolute magnitude H 16.2   n/a MPO459732  
diameter diameter 3.496 km 0.080 urn:nasa:pds:neowise_diameters_albedos::2.0[mainbelt] (http://adsabs.harvard.edu/abs/2011ApJ...741...68M)  
geometric albedo albedo 0.069   0.012 urn:nasa:pds:neowise_diameters_albedos::2.0[mainbelt] (http://adsabs.harvard.edu/abs/2011ApJ...741...68M)  

160086 (2000 LT23)          Discovered 2000-Jun-07 by LINEAR at Socorro
Reference: 20070730/Numbers.arcLast Updated: 2007-08-06

[ show close-approach data ]
Alternate Designations
 2000 LT23 = 2001 XK134 
Ephemeris | Orbit Diagram | Orbital Elements | Mission Design | Physical Parameters | Discovery Circumstances | Close-Approach Data ]
ABOUT SSD CREDITS/AWARDS PRIVACY/COPYRIGHT GLOSSARY LINKS
FirstGov 2020-Jul-10 23:29 UT
(server date/time)  
NASA Home Page
Site Manager:   Ryan S. Park
Webmaster  Alan B. Chamberlin